RH
9 11 10 10 30 46 40 34 34 37 38 41 40 39 38 37 35 36 32 27 28 28 30 27 22 17 14 13 12 12 13 13 12 13 17 19 17 22 20 20 19 16 14 12
11 9 9 10 14 19 41 56 52 39 34 38 42 41 40 39 39 38 36 34 33 35 40 42 40 30 23 23 21 22 21 19 21 21 19 19 18 20 20 16 17 16 14 13
13 9 12 10 9 10 14 18 29 51 56 50 42 36 36 40 42 39 35 34 35 36 38 36 38 39 35 32 30 30 31 28 26 28 23 20 18 21 19 14 13 12 12 11
16 12 13 13 11 10 10 13 18 18 23 34 45 44 48 46 48 46 37 31 27 23 21 16 25 29 21 19 22 28 31 33 31 29 26 22 21 21 19 14 12 11 10 9
10 12 14 14 12 13 10 12 12 15 16 17 17 17 17 15 16 21 26 24 18 14 8 9 13 6 8 10 21 29 33 30 22 23 24 23 23 24 18 14 12 11 10 8
10 12 13 14 15 16 14 14 14 15 18 16 12 14 17 14 13 10 10 11 12 12 9 8 8 7 6 10 21 30 30 24 21 23 26 26 25 22 14 10 9 10 10 9
37 22 15 22 22 23 20 17 23 22 24 9 12 13 14 13 12 12 12 12 11 11 10 9 8 8 7 6 11 19 22 21 22 26 28 27 22 16 12 9 8 9 8 7
72 62 100 100 60 36 41 22 18 16 15 11 14 15 10 10 10 10 11 11 11 11 11 11 10 9 8 6 8 15 18 20 22 29 31 22 12 9 8 8 8 10 7 6
100 87 98 100 85 77 87 92 47 50 29 28 23 14 10 10 10 10 8 8 9 9 10 10 10 10 9 8 6 11 14 17 22 27 28 16 7 4 3 4 4 6 7 8
100 100 98 100 100 100 92 100 100 99 69 52 50 28 21 14 12 11 9 8 8 8 8 8 8 9 10 10 8 9 13 16 22 26 26 19 6 4 3 3 5 7 7 7
100 100 100 98 100 100 91 100 100 99 85 100 63 29 14 16 17 16 14 12 12 10 10 9 9 8 9 10 10 11 13 15 18 22 20 12 6 3 3 3 8 9 10 20
100 100 100 100 100 100 100 90 98 100 100 100 97 40 20 20 18 18 14 12 11 12 12 13 12 13 12 12 12 13 14 15 17 17 11 4 3 3 3 3 10 13 24 47
98 100 100 100 100 80 98 100 100 83 100 99 100 92 66 40 34 28 26 18 15 11 12 15 16 17 17 15 14 14 14 14 14 11 6 4 3 3 3 3 9 15 56 69
100 100 100 100 100 99 77 62 100 100 100 100 100 87 60 53 51 46 40 32 29 23 21 20 22 22 20 17 16 14 13 13 12 10 7 5 4 4 3 3 9 26 66 81
100 100 100 100 100 100 100 96 52 74 100 100 83 100 100 97 78 54 53 52 56 56 46 35 29 28 25 22 19 16 13 12 10 9 7 6 5 5 4 4 7 25 84 86
70 94 100 100 100 100 98 99 100 84 99 100 96 70 80 100 100 92 75 62 61 85 67 53 40 34 30 26 24 19 15 13 11 10 9 8 6 6 6 5 6 18 80 90
69 56 82 98 100 100 100 100 100 100 100 100 100 100 100 69 68 100 98 97 82 93 89 75 66 53 40 30 25 22 20 17 15 14 12 10 8 7 7 6 7 12 40 96
100 90 58 64 85 96 99 100 100 100 100 100 100 87 99 91 100 100 77 100 80 86 100 100 96 76 64 49 43 31 28 27 25 21 17 14 12 11 17 15 12 11 18 53
87 87 91 91 68 81 88 93 98 100 100 100 100 100 93 85 97 96 100 100 100 100 100 100 100 92 74 62 50 45 40 35 31 27 23 18 16 13 17 26 57 29 24 33
64 84 92 84 85 79 98 89 84 80 87 91 98 93 91 100 99 74 87 99 100 100 100 100 100 100 87 57 42 37 31 27 23 27 24 20 18 19 26 27 63 99 61 68
68 66 69 69 80 75 64 49 54 56 55 57 63 75 97 100 78 97 78 90 92 100 96 100 100 100 100 88 71 56 40 30 24 21 23 22 20 25 26 41 66 88 100 100
95 95 94 89 90 88 81 72 48 42 37 36 31 35 51 73 71 70 70 94 92 80 100 77 77 98 84 66 63 54 42 33 35 36 31 26 28 30 30 29 39 69 89 99
82 89 88 97 98 100 100 100 98 90 84 65 39 38 22 20 41 55 70 67 73 93 84 96 76 40 61 75 44 32 34 33 39 57 77 51 48 42 72 78 74 65 46 88
92 91 96 100 100 100 100 97 99 92 83 78 71 66 58 45 39 21 22 26 36 57 83 84 78 48 66 90 60 74 97 98 100 99 99 100 98 100 63 99 100 92 83 60
84 94 96 98 100 99 100 100 100 100 96 77 60 43 43 43 50 41 28 28 34 32 26 34 34 59 98 84 79 89 100 100 100 100 94 100 99 100 94 100 100 100 100 81
99 98 96 95 92 96 100 100 100 100 100 100 94 82 74 84 64 40 37 34 28 30 31 31 20 26 65 87 74 93 100 100 100 99 100 97 100 100 99 92 100 100 100 84
Wind_Speed
66 70 70 64 66 63 64 66 64 63 60 58 56 58 57 57 56 55 55 55 54 52 51 52 52 51 51 49 48 46 45 44 44 43 41 41 41 42 42 43 44 45 44 43
73 74 65 68 70 69 68 68 68 71 68 65 64 63 64 63 63 62 60 59 57 54 54 55 56 57 55 53 51 50 50 49 47 47 45 44 46 44 43 43 45 46 46 46
78 69 66 71 73 73 72 70 70 70 71 70 68 68 67 67 67 66 64 60 57 54 53 53 54 56 55 51 49 49 50 49 48 49 48 45 46 44 43 43 44 45 47 49
76 71 74 72 74 75 75 71 69 72 70 70 70 68 69 69 66 66 64 59 54 50 48 47 47 47 47 45 43 44 44 45 45 47 46 45 46 46 45 45 46 47 48 50
68 69 72 74 70 71 70 72 72 71 72 72 71 69 70 70 68 64 61 58 54 49 46 44 44 43 41 40 38 41 42 43 43 43 44 45 46 46 45 45 45 46 48 51
75 73 73 68 67 68 69 71 69 69 69 75 72 72 73 72 71 68 63 59 55 51 48 46 45 43 41 38 37 39 41 42 41 42 43 43 44 45 45 45 45 46 47 48
66 69 70 66 68 69 70 69 64 66 68 75 74 73 74 73 71 70 66 64 60 56 52 50 48 46 44 41 38 37 38 41 40 41 43 43 42 43 43 43 44 45 46 49
51 57 45 53 62 61 63 70 74 75 74 72 72 72 74 71 69 68 66 64 61 56 54 52 50 48 46 44 40 39 39 38 39 40 41 41 40 41 42 42 43 42 47 45
41 48 55 40 47 55 47 55 52 58 62 61 67 71 70 67 66 65 65 63 61 58 56 53 52 49 49 48 45 41 40 39 39 39 40 40 40 42 42 43 45 46 46 45
45 41 49 57 40 42 47 42 50 50 52 52 53 53 55 59 58 57 57 60 61 57 55 54 53 52 51 50 48 45 43 41 41 42 42 41 42 42 42 41 44 47 47 45
41 42 45 44 49 47 45 44 47 46 50 42 53 59 56 52 48 47 47 47 48 51 49 49 49 50 51 51 50 48 46 44 43 42 43 42 41 41 40 40 42 46 44 44
48 43 41 48 53 55 58 52 47 47 50 35 44 53 54 53 51 48 48 47 45 44 43 44 47 48 50 52 52 50 48 46 45 44 44 43 42 40 38 38 39 43 41 43
44 44 38 42 46 59 56 51 53 55 56 42 42 38 42 48 48 46 44 44 45 45 44 43 45 49 52 54 53 52 49 48 48 48 47 45 44 43 40 39 40 40 40 35
35 37 40 38 44 45 60 64 53 52 48 53 40 45 50 51 48 45 45 44 44 44 44 45 47 51 54 55 55 54 52 50 49 49 49 48 47 45 42 40 40 40 37 34
29 31 34 38 36 44 44 52 54 56 55 51 55 53 38 53 43 43 44 46 48 49 49 49 51 55 57 57 56 56 54 52 51 51 50 50 48 46 43 42 41 41 38 34
13 25 32 32 35 40 40 46 58 58 60 55 61 63 64 48 45 48 43 45 49 57 57 55 56 55 56 56 53 53 53 52 51 51 50 51 51 47 45 42 42 40 38 35
2 10 24 27 35 35 37 37 36 45 47 56 55 58 61 48 62 50 46 46 46 52 62 60 57 57 55 51 50 50 50 51 51 51 50 49 49 48 45 43 42 40 40 33
1 2 6 12 28 34 34 35 40 42 41 38 53 52 59 62 52 53 65 52 47 47 58 62 62 57 52 51 50 49 51 50 50 51 51 51 50 49 44 44 42 42 41 43
1 3 6 3 7 26 33 37 38 40 41 42 42 47 59 58 55 60 52 60 56 55 56 62 59 54 51 50 47 50 50 48 50 50 49 50 48 49 47 42 36 40 39 36
4 6 7 4 2 6 13 21 29 45 39 41 42 48 59 58 50 55 54 58 58 62 58 57 60 53 50 49 47 46 49 49 47 46 47 48 48 46 46 45 39 32 33 26
6 5 3 2 3 4 7 15 20 33 39 43 47 49 48 51 52 54 57 58 57 51 59 58 54 55 58 52 50 51 51 50 49 48 47 48 47 43 43 43 43 38 32 27
11 4 1 3 4 6 7 7 10 12 13 19 31 43 54 55 58 61 63 62 62 61 64 65 63 60 56 55 57 57 56 54 47 45 47 49 46 43 40 40 39 39 37 30
18 14 10 8 6 3 1 0 2 5 5 7 9 11 23 46 63 63 64 66 67 63 65 64 64 55 57 56 57 60 59 56 53 49 44 46 43 44 35 31 32 33 36 34
20 19 16 12 11 7 5 2 1 2 4 5 6 6 7 10 18 38 45 66 74 77 70 62 61 60 62 62 59 59 56 53 53 50 46 39 39 35 40 34 33 33 32 34
15 14 14 13 13 11 8 4 1 3 5 5 8 11 12 12 13 15 18 22 27 40 61 74 72 67 72 72 63 69 63 59 57 56 53 48 42 40 41 37 36 35 34 33
12 12 13 13 14 15 14 12 7 4 4 9 14 17 20 22 19 18 21 23 24 31 39 46 67 79 75 78 74 69 67 69 67 64 62 59 50 46 43 40 38 37 39 36
Wind_Direction
248 248 248 253 253 253 253 252 249 248 247 247 245 246 246 247 246 246 246 246 248 249 251 253 253 251 250 248 248 248 248 247 246 246 247 245 245 245 240 239 237 234 234 236
249 248 250 249 249 249 247 249 249 250 247 247 246 246 247 249 250 248 248 250 251 252 255 255 254 252 250 250 252 252 250 249 248 247 245 245 241 241 240 237 237 238 237 237
251 252 247 245 245 245 247 247 249 249 249 247 247 247 249 249 251 249 248 248 249 251 251 251 252 253 252 251 251 251 250 248 249 248 244 242 240 239 238 238 239 240 239 238
249 246 246 242 242 242 242 244 245 247 247 248 245 245 248 247 248 248 248 248 247 247 247 248 247 247 250 251 248 247 248 247 247 246 243 240 239 236 235 236 237 238 239 240
249 246 247 247 247 244 244 243 243 243 244 245 246 246 247 247 246 247 248 247 244 242 242 243 243 244 247 249 246 244 243 244 245 243 238 236 237 238 236 237 238 240 242 242
240 241 242 244 244 242 240 241 241 241 241 242 242 243 245 246 247 247 245 246 247 248 244 241 241 243 243 244 243 242 241 242 242 241 237 235 236 238 239 239 241 244 247 249
236 239 239 240 236 236 236 235 237 236 235 240 240 240 241 244 246 246 247 247 246 245 244 244 243 244 243 241 238 239 242 243 241 240 238 238 236 238 241 246 249 251 254 252
237 228 222 235 236 234 235 235 235 237 238 239 239 240 241 243 244 246 246 248 248 246 243 242 242 243 244 242 239 238 238 240 243 240 240 239 238 241 245 248 254 258 258 258
231 228 214 221 237 231 223 224 234 236 238 240 244 243 243 244 245 244 244 246 247 247 245 242 240 239 240 241 242 240 238 238 239 240 240 240 242 244 246 248 250 253 259 259
218 216 222 222 226 231 227 224 222 226 229 231 237 238 239 240 240 241 240 240 242 243 243 241 238 237 237 237 239 240 240 237 238 238 239 240 242 245 247 250 252 255 260 260
210 215 211 221 220 228 230 226 222 229 235 228 237 239 238 237 237 236 236 234 235 237 238 237 235 233 234 235 235 235 236 237 237 239 240 240 241 243 246 250 256 258 262 264
227 217 216 208 208 210 218 219 212 216 219 219 230 238 236 236 237 239 238 237 234 232 232 231 230 228 229 231 232 234 233 234 235 236 238 239 240 241 246 252 261 258 263 265
217 224 224 223 215 211 215 210 213 214 219 228 229 222 231 233 233 233 232 233 235 233 231 229 227 226 227 228 230 231 231 231 233 235 236 238 240 241 242 250 257 258 263 270
209 213 221 222 224 217 214 226 218 213 213 217 216 231 237 238 233 230 229 229 228 228 226 225 225 225 225 228 230 231 231 230 232 234 236 237 238 241 242 248 254 256 260 262
215 209 208 214 214 220 225 215 229 232 229 228 229 232 230 225 233 233 228 224 223 222 222 222 221 223 226 229 230 231 231 230 231 234 236 238 239 241 243 248 251 254 260 267
232 226 214 208 211 209 210 216 222 222 226 227 226 227 232 228 231 227 228 225 221 219 220 222 220 223 225 226 227 228 228 229 230 233 236 239 241 241 242 245 246 253 255 261
272 241 231 227 218 212 214 212 209 211 210 214 214 222 227 224 230 229 234 227 222 222 222 223 224 224 224 225 227 229 231 232 233 234 236 239 243 245 244 241 244 249 248 248
325 251 238 245 233 224 223 221 219 218 216 206 210 223 221 228 229 229 232 224 229 228 224 226 227 226 223 225 227 228 230 232 233 234 235 237 241 245 246 244 243 247 250 250
173 105 118 124 249 227 231 233 234 232 226 219 216 219 225 223 235 235 227 218 222 226 223 225 222 220 223 224 226 228 228 231 232 234 236 238 239 243 245 243 243 247 253 257
115 121 120 127 142 207 226 239 242 241 242 240 232 224 219 220 228 238 238 235 224 215 216 221 223 222 224 223 227 234 236 235 233 232 236 238 237 236 238 240 241 243 249 257
108 127 169 212 212 219 239 249 250 252 251 247 246 240 236 221 227 230 240 240 236 234 233 234 231 228 227 232 233 236 238 237 236 233 233 234 235 231 230 231 235 240 245 244
62 88 168 222 244 275 238 237 233 238 249 257 255 250 244 238 230 234 235 235 236 235 230 238 240 238 236 234 232 230 232 234 236 233 233 233 233 227 225 226 231 232 237 237
51 61 63 65 59 63 57 269 228 236 234 237 237 231 256 256 245 242 239 237 241 232 231 232 231 236 231 228 230 232 231 231 233 233 228 231 228 228 210 218 224 230 228 231
43 45 47 50 50 53 55 50 263 249 247 252 249 221 230 241 246 252 258 255 249 245 244 237 237 238 231 225 222 220 227 224 226 230 227 224 219 218 212 208 217 223 225 226
48 58 61 62 59 51 48 47 1 262 256 245 206 206 216 230 251 257 254 256 258 257 255 247 244 237 228 222 223 224 229 221 226 224 222 216 214 214 214 205 209 216 218 220
39 48 57 60 64 66 71 65 50 0 284 243 244 245 247 253 253 254 256 254 251 258 255 249 248 238 231 225 222 224 227 226 223 226 224 223 213 208 215 212 213 213 218 223